Regional Weather Roundup
Issued by NWS Grand Forks, ND

Home | Current Version | Previous Version | Graphics & Text | Print | Product List | Glossary On
Versions: 1 2 3 4 5 6 7 8 9 10 11 12 13 14 15 16 17 18 19 20 21 22 23 24 25 26 27 28 29 30 31 32 33 34 35 36 37 38 39 40 41 42 43 44 45 46 47 48 49 50
000
ASUS43 KFGF 212031
RWRFGF
PRAIRIE TO PINES  WEATHER ROUNDUP
NATIONAL WEATHER SERVICE EASTERN NORTH DAKOTA/GRAND FORKS ND
200 PM CST TUE NOV 21 2017

 **SATELLITE DATA USED TO AUGMENT SKY COVER AT AUTOMATED STATIONS**
 *****  WEATHER ACROSS EASTERN NORTH DAKOTA  *****

CITY           SKY/WX    TMP DP  RH WIND       PRES   REMARKS
GRAND FORKS    FAIR      21  11  65 NW16      30.31S WCI   7
GRAND FRKS AFB FAIR      21  10  63 NW13      30.31S WCI   8
GRAND FRKS NWS   N/A     21 N/A N/A NW9         N/A  WCI  11
DEVILS LAKE    FLURRIES  17  10  74 W14       30.30F WCI   3
FARGO          FAIR      24  10  55 NW22G29   30.32R WCI   9
WAHPETON ARPT  NOT AVBL
$$

 ***** WEATHER ACROSS CENTRAL AND WESTERN NORTH DAKOTA  *****

CITY           SKY/WX    TMP DP  RH WIND       PRES   REMARKS
BISMARCK       FAIR      22   8  55 NW15G23   30.38S WCI   9
MINOT          PTSUNNY   17   4  56 W15       30.35R WCI   2
JAMESTOWN      FAIR      19   8  62 NW18      30.31S WCI   4
MINOT AFB      PTSUNNY   15   3  60 NW18      30.34S WCI  -2
GARRISON         N/A     13   6  74 W17       30.36R WCI  -4
WILLISTON      FAIR      15   0  51 W8        30.36F WCI   4
DICKINSON      FAIR      19   0  43 W17       30.29F WCI   4
HETTINGER      FAIR      21   1  41 W17       30.33S WCI   7
$$

 *****  OTHER AIRPORT OBSERVATIONS IN OUR AREA  *****

CITY           SKY/WX    TMP DP  RH WIND       PRES   REMARKS
WALHALLA       FAIR      21  10  63 NW18G25   30.29S WCI   6
GRAFTON AIRPOR FAIR      21  12  68 NW16G23   30.32S WCI   7
VALLEY CITY AR FAIR      19   9  63 NW17      30.32R WCI   4
CANDO          MOCLDY    19   9  63 W15       30.33R WCI   5
CAVALIER APRT  FAIR      21   9  58 NW17G26   30.29R WCI   7
GWINNER          N/A     23   9  54 NW14      30.32S WCI  11
SHEYENNE NWR     N/A     24   8  50 NW12      29.95S WCI  13
ROLLA          FAIR      18   7  62 W13       30.28R WCI   4
 ***** THE ABOVE OBSERVATIONS ARE NON NWS ARE NOT QUALITY
       CONTROLLED AND MAY MIS-REPORT RAIN FOR SNOW...
$$

  *****  WEATHER ACROSS NORTHERN MINNESOTA  *****

CITY           SKY/WX    TMP DP  RH WIND       PRES   REMARKS
FLAG ISLAND    CLOUDY    19  10  68 NW18G29   30.15R WCI   4
WARROAD        FLURRIES  19  12  73 W10       30.19R WCI   8
ROSEAU         FLURRIES  19  12  73 W15G21    30.21S WCI   5
HALLOCK        FAIR      21  12  68 NW17      30.27S WCI   7
THF RVR FALLS  FLURRIES  17  11  77 NW18      30.26R WCI   1
BAUDETTE       LGT SNOW  17  10  74 NW15      30.15R WCI   2
WASKISH        FLURRIES  18  10  73 W13G18    30.19R WCI   4
CROOKSTON      PTSUNNY   19  10  68 NW20      30.30S WCI   4
STEPHEN NDAWN    N/A     19  10  68 NW14        N/A  WCI   6
GREENBUSH NDAW   N/A     18  12  79 W15         N/A  WCI   3
$$
  *****  WEATHER ACROSS CENTRAL AND WEST MINNESOTA  *****

CITY           SKY/WX    TMP DP  RH WIND       PRES   REMARKS
FOSSTON        FLURRIES  16   9  73 NW17G24   30.25S WCI   0
BEMIDJI        FLURRIES  17   8  67 NW20G25   30.19R WCI   1
PARK RAPIDS    CLOUDY    20   8  60 NW20G28   30.18R WCI   4
ELBOW LAKE     FAIR      21  10  63 NW18G25   30.27S HAZE    WCI   6
WADENA         FAIR      19  10  68 NW20      30.21R WCI   4
DETROIT LAKES  FLURRIES  19  12  73 NW15G24   30.25S WCI   5
MOORHEAD       FAIR      21   9  58 NW21G28   30.31S WCI   6
FERGUS FALLS   FAIR      21  10  63 N16G24    30.30S WCI   7
MORRIS MN      FAIR      25   9  50 NW24G30   30.27R WCI   9
STAPLES        FAIR      19   9  63 NW20G26   30.20R WCI   4
$$
  *****  WEATHER ELSEWHERE ACROSS MINNESOTA  *****

CITY           SKY/WX    TMP DP  RH WIND       PRES   REMARKS
DULUTH         FAIR      21   9  59 NW17G28   30.04R WCI   7
INTRNTL FALLS    N/A     17   7  64 NW18G24   30.12R WCI   1
ELY            CLOUDY    16   7  67 NW14G28   30.04R WCI   1
CLOQUET        FAIR      25   7  46 W16G22    30.07R WCI  12
WHEATON        FAIR      25   7  46 NW17G26   30.33R WCI  11
BRAINERD       FAIR      26   7  44 NW17G23   30.16R WCI  13
HIBBING        LGT SNOW  17   8  67 NW20      30.08R WCI   1
ALEXANDRIA     FAIR      22   9  57 NW18G25   30.22R WCI   7
SAINT CLOUD    FAIR      26   9  48 NW20G25   30.18R WCI  12
MINNEAPOLIS    FAIR      28  11  48 NW18      30.15R WCI  15
$$

  *****  WEATHER ACROSS SOUTH DAKOTA  *****

CITY           SKY/WX    TMP DP  RH WIND       PRES   REMARKS
SIOUX FALLS    FAIR      29  11  47 NW18G26   30.29R WCI  16
BROOKINGS      FAIR      24   9  52 N18       30.29R WCI  10
WATERTOWN      FAIR      23   7  50 NW17      30.28R WCI   9
HURON          FAIR      26   6  42 N16       30.35S WCI  14
SISSETON         N/A     25   8  48 NW20G26   30.30S WCI  11
ABERDEEN       FAIR      25   7  46 N12       30.36S WCI  14
MITCHELL       FAIR      26   8  46 NW15G24   30.37S WCI  14
PIERRE         FAIR      24   8  50 NW13      30.36F WCI  12
MOBRIDGE       FAIR      23   5  46 NW9       30.33S WCI  13
RAPID CITY     FAIR      33  20  58 NW5       30.31F
$$

  *****  SOME WEATHER IN NEARBY STATES *****

CITY           SKY/WX    TMP DP  RH WIND       PRES   REMARKS
GLASGOW MT     CLOUDY    13  -2  51 SE7       30.30F WCI   3
GREAT FALLS MT FAIR      41  27  57 SW10      30.09F
CHEYENNE WY    CLOUDY    43  32  65 VRB3      30.27F
SCOTTSBLUFF NE FAIR      47  24  40 W12       30.29F
OMAHA NE       FAIR      33  13  43 NW26G32   30.27R WCI  20
DES MOINES IA  FAIR      35  15  44 NW24G35   30.17R WCI  23
DAVENPORT IA   FAIR      34  20  56 NW21G31   30.04R WCI  22
CHICAGO IL     CLOUDY    39  20  46 NW18      29.88R
EAU CLAIRE WI  FAIR      28  12  51 NW14G25   30.06R WCI  17
LA CROSSE WI   FAIR      33  13  43 NW18G28   30.06R WCI  22
$$

  *****  SOME NATIONAL WEATHER *****

CITY           SKY/WX    TMP DP  RH WIND       PRES   REMARKS
LA GUARDIA NY  PTSUNNY   59  29  31 SW13G20   30.02F
RALEIGH NC     CLOUDY    63  46  54 S9        30.11F
ATLANTA GA     FAIR      66  53  63 SE3       30.02F
NEW ORLEANS LA PTSUNNY   72  60  66 NE8       29.94F
OKLAHOMA CITY  PTSUNNY   57  30  35 NE24G30   30.03R
ALBUQUERQUE NM PTSUNNY   60  11  14 E5        30.24F
SALT LAKE CITY PTSUNNY   61  38  42 N3        30.33F
LOS ANGELES CA PTSUNNY   78  39  24 W9        30.05F
BOISE ID       CLOUDY    57  47  69 SE10      30.25S
SEATTLE WA     LGT RAIN  46  45  96 CALM      29.90F FOG
$$

*** WEATHER ACROSS MANITOBA...SASKATCHEWAN AND ONTARIO ***
                ***ONTARIO***

CITY           SKY/WX    TMP DP  RH WIND       PRES   REMARKS
GERALDTON      LGT SNOW  16  10  79 NW16G26   29.75R DRFTSNOWWCI   0
THUNDER BAY    FLURRIES  19  10  68 NW16G26   29.95R WCI   5
SIOUX LOOKOUT  FLURRIES  16  10  79 NW15G24   29.97R WCI   1
TORONTO        PTSUNNY   52  34  50 SW25G32   29.71R
BIG TROUT LK   FLURRIES  16  12  86 NW13G22   29.77R WCI   2
PICKLE LAKE    LGT SNOW  14   7  73 W20G26    29.83R DRFTSNOWWCI  -3
DRYDEN         FLURRIES  16  12  86 W17       30.02R WCI   0
KENORA         LGT SNOW  16  10  79 NW12G18   30.09R DRFTSNOWWCI   3
$$
                *** MANITOBA***

CITY           SKY/WX    TMP DP  RH WIND       PRES   REMARKS
BRANDON        FLURRIES  14   7  73 W17       30.31R WCI  -3
DAUPHIN        SUNNY     16  10  79 W18G25    30.26S WCI  -1
ISLAND LAKE    FLURRIES  18  12  79 W14G28    29.99R WCI   4
PILOT MOUND      N/A     14   9  79 W12G17      N/A  WCI   0
THE PAS        PTSUNNY   12   5  73 NW16      30.23F WCI  -4
THOMPSON       PTSUNNY    9   1  72 W15G21    30.06F WCI  -8
WINNIPEG       MOSUNNY   19  10  68 NW21      30.25R WCI   3
LYNN LAKE      SUNNY     10   5  79 NW13G21   30.11S WCI  -5
CHURCHILL      LGT SNOW  12   9  85 NW30G46   29.75S BLWGSNOWWCI  -9
GILLAM         LGT SNOW  14   9  79 W16G32    29.90  WCI  -2
$$
                ***SASKATCHEWAN***

CITY           SKY/WX    TMP DP  RH WIND       PRES   REMARKS
ESTEVAN        CLOUDY     9   0  66 W12       30.34F WCI  -6
KINDERSLEY     MOSUNNY   -2  -9  71 SW7       30.23F WCI -16
LLOYDMINSTER   PTSUNNY    1  -4  78 S6        30.20F WCI -10
PRINCE ALBERT  FLURRIES   9   1  72 W5        30.31F WCI   0
REGINA         MOSUNNY    3  -4  72 W6        30.33F WCI  -8
YORKTON        SUNNY     10   5  79 NW14      30.28F WCI  -5
N. BATTLEFORD  CLOUDY     3  -4  72 W3        30.30F
LA RONGE       PTSUNNY    5   0  78 SW8       30.27F WCI  -8
SASKATOON      PTSUNNY    5  -2  72 VRB2      30.31F
SWIFT CURRENT  CLOUDY     9   0  66 S6        30.21F WCI  -1
$$
NOTE: THESE ARE AUTOMATED STATIONS WITH LIMITED QUALITY CONTROL
      "FAIR" INDICATES FEW OR NO CLOUDS BELOW 12,000 FEET WITH NO
      SIGNIFICANT WEATHER AND/OR OBSTRUCTIONS TO VISIBILITY.
      SKY/WX - SKY CONDITION AND SIGNIFICANT WEATHER.
      TMP - AIR TEMPERATURE.    DP   - DEWPOINT TEMPERATURE.
      RH  - RELATIVE HUMIDITY.  PRES - PRESSURE.
      HX  - HEAT INDEX.         WCI  - WIND CHILL INDEX.
$




USA.gov is the U.S. government's official web portal to all federal, state and local government web resources and services.